Погода в Халимбекауле

Россия / Республика Дагестан     42°50′40″N   47°08′32″E
темп.,
°C
ветер,
м/с
пор.,
м/с
влажн.,
%
обл.,
%
осадки,
мм/ч
давл.,
гПа
погр.,
м
25 июня, сб
сб2500:00+16ююв018422 0.1 100914
03:00+15ююв118820 0.1 100911
06:00+18всв117484 0.0 1010142
09:00+20ссв2170100 0.0 1010792
12:00+22ссв226696 0.0 10091091
15:00+22св226681 0.1 1008961
18:00+21ссв3371100 0.1 1009611
21:00+17з1183100 0.1 101013
26 июня, вс
вс2600:00+18з2281100 0.0 100913
03:00+17ююз1185100 0.3 100913
06:00+19с117892 0.0 1009151
09:00+20ссз2268100 0.0 1009590
12:00+23с3256100 0.0 10081120
15:00+24ссз4453100 0.1 10071340
18:00+23сз3659100 0.6 1007505
21:00+20юз2270100 1.0 100923
27 июня, пн
пн2700:00+19зюз3373100 0.1 100946
03:00+17з22770 0.1 100927
06:00+20зюз34710 0.0 1010200
09:00+24ссз56540 0.0 1010881
12:00+25с875417 0.0 10101352
15:00+25с7757100 0.0 10101551
18:00+23ссз576095 0.0 1011722
21:00+19з3475100 0.0 101286
28 июня, вт
вт2800:00+19зсз347798 0.0 101182
03:00+17з3483100 0.0 101182
06:00+19зсз36660 0.0 1010378
09:00+23ссз67450 0.0 1010868
12:00+26ссз88400 0.0 10091412
15:00+26с89390 0.0 10091882
18:00+22с56580 0.0 1011884
21:00+17зюз33724 0.4 101339
29 июня, ср
ср2900:00+18юз3369100 0.3 101337
03:00+17юз336461 0.3 101227
06:00+20юз22600 0.0 101390
09:00+23с33411 0.0 10131054
12:00+26с32352 0.0 10121858
15:00+24в544966 0.0 1012993
18:00+20всв327750 0.1 1013599
21:00+17в2292100 0.2 1015162